Hourly Weather Baronissi

Today, 19 April, Monday

Time Temperature Precipitation Wind Pressure Humidity
00:00 +8°C° 0.2 mm 1 mps 739 mmHg 89%
01:00 +8°C° 0 mm 1 mps 738 mmHg 89%
02:00 +8°C° 0.2 mm 1 mps 738 mmHg 89%
03:00 +8°C° 0.2 mm 1 mps 738 mmHg 89%
04:00 +8°C° 0.2 mm 1 mps 738 mmHg 89%
05:00 +8°C° 0.1 mm 1 mps 738 mmHg 87%
06:00 +9°C° 0.1 mm 1 mps 738 mmHg 85%
07:00 +9°C° 0.1 mm 1 mps 738 mmHg 83%
08:00 +10°C° 0.1 mm 1 mps 738 mmHg 77%
09:00 +12°C° 0.1 mm 1 mps 738 mmHg 71%
10:00 +13°C° 0.1 mm 1 mps 738 mmHg 65%
11:00 +13°C° 0.4 mm 1 mps 738 mmHg 65%
12:00 +13°C° 0.4 mm 2 mps 738 mmHg 64%
13:00 +14°C° 0.4 mm 2 mps 738 mmHg 64%
14:00 +13°C° 0.7 mm 2 mps 738 mmHg 67%
15:00 +13°C° 0.7 mm 2 mps 738 mmHg 70%
16:00 +11°C° 0.7 mm 3 mps 738 mmHg 72%
17:00 +12°C° 0.4 mm 2 mps 739 mmHg 76%
18:00 +10°C° 0.4 mm 2 mps 739 mmHg 80%
19:00 +9°C° 0.4 mm 2 mps 739 mmHg 84%
20:00 +9°C° 0.2 mm 2 mps 739 mmHg 85%
21:00 +8°C° 0.2 mm 2 mps 740 mmHg 86%
22:00 +9°C° 0.2 mm 1 mps 740 mmHg 87%
23:00 +9°C° 0.1 mm 1 mps 740 mmHg 87%

Tomorrow, 20 April, Tuesday

Time Temperature Precipitation Wind Pressure Humidity
00:00 +9°C° 0.1 mm 1 mps 740 mmHg 87%
01:00 +9°C° 0.1 mm 1 mps 740 mmHg 87%
02:00 +9°C° 0.1 mm 1 mps 740 mmHg 87%
03:00 +9°C° 0.1 mm 1 mps 740 mmHg 88%
04:00 +8°C° 0.1 mm 1 mps 740 mmHg 88%
05:00 +9°C° 0 mm 1 mps 740 mmHg 86%
06:00 +10°C° 0 mm 1 mps 740 mmHg 85%
07:00 +10°C° 0 mm 1 mps 741 mmHg 83%
08:00 +11°C° 0.2 mm 1 mps 741 mmHg 78%
09:00 +12°C° 0.2 mm 2 mps 741 mmHg 72%
10:00 +13°C° 0.2 mm 2 mps 741 mmHg 67%
11:00 +14°C° 0.3 mm 2 mps 741 mmHg 65%
12:00 +13°C° 0.3 mm 3 mps 741 mmHg 64%
13:00 +13°C° 0.3 mm 3 mps 741 mmHg 62%
14:00 +13°C° 0.1 mm 3 mps 741 mmHg 62%
15:00 +13°C° 0.1 mm 3 mps 741 mmHg 62%
16:00 +13°C° 0.1 mm 3 mps 741 mmHg 62%
17:00 +13°C° 0 mm 2 mps 741 mmHg 67%
18:00 +10°C° 0 mm 2 mps 741 mmHg 73%
19:00 +10°C° 0 mm 1 mps 741 mmHg 79%
20:00 +10°C° 0 mm 1 mps 742 mmHg 81%
21:00 +9°C° 0 mm 1 mps 742 mmHg 83%
22:00 +9°C° 0 mm 1 mps 742 mmHg 85%
23:00 +9°C° 0 mm 1 mps 742 mmHg 86%

Day after tomorrow, 21 April, Wednesday

Time Temperature Precipitation Wind Pressure Humidity
00:00 +9°C° 0 mm 1 mps 742 mmHg 86%
01:00 +9°C° 0 mm 1 mps 742 mmHg 87%
02:00 +8°C° 0 mm 1 mps 742 mmHg 88%
03:00 +8°C° 0 mm 1 mps 742 mmHg 89%
04:00 +8°C° 0 mm 1 mps 742 mmHg 90%
05:00 +9°C° 0 mm 1 mps 742 mmHg 86%
06:00 +10°C° 0 mm 1 mps 743 mmHg 82%
07:00 +11°C° 0 mm 1 mps 743 mmHg 79%
08:00 +12°C° 0 mm 1 mps 743 mmHg 70%
09:00 +14°C° 0 mm 1 mps 743 mmHg 61%
10:00 +16°C° 0 mm 1 mps 743 mmHg 52%
11:00 +16°C° 0 mm 2 mps 743 mmHg 50%
12:00 +17°C° 0 mm 2 mps 743 mmHg 48%
13:00 +17°C° 0 mm 2 mps 743 mmHg 46%
14:00 +17°C° 0 mm 2 mps 742 mmHg 46%
15:00 +17°C° 0 mm 2 mps 742 mmHg 46%
16:00 +16°C° 0 mm 2 mps 742 mmHg 47%
17:00 +15°C° 0 mm 1 mps 742 mmHg 50%
18:00 +14°C° 0 mm 1 mps 742 mmHg 53%
19:00 +13°C° 0 mm 1 mps 742 mmHg 56%
20:00 +12°C° 0 mm 1 mps 742 mmHg 56%
21:00 +11°C° 0 mm 1 mps 742 mmHg 55%
22:00 +11°C° 0 mm 1 mps 742 mmHg 55%
23:00 +11°C° 0 mm 1 mps 742 mmHg 54%

22 April, Thursday

Time Temperature Precipitation Wind Pressure Humidity
00:00 +10°C° 0 mm 1 mps 742 mmHg 54%
01:00 +10°C° 0 mm 1 mps 742 mmHg 54%
02:00 +10°C° 0 mm 1 mps 742 mmHg 52%
03:00 +10°C° 0 mm 1 mps 742 mmHg 50%
04:00 +11°C° 0 mm 1 mps 741 mmHg 47%
05:00 +11°C° 0 mm 1 mps 741 mmHg 49%
06:00 +12°C° 0 mm 1 mps 742 mmHg 50%
07:00 +13°C° 0 mm 1 mps 742 mmHg 51%
08:00 +13°C° 0 mm 1 mps 742 mmHg 54%
09:00 +13°C° 0 mm 1 mps 742 mmHg 56%
10:00 +13°C° 0 mm 1 mps 742 mmHg 59%
11:00 +13°C° 0.5 mm 1 mps 742 mmHg 68%
12:00 +13°C° 0.5 mm 1 mps 742 mmHg 77%
13:00 +13°C° 0.5 mm 1 mps 742 mmHg 87%
14:00 +13°C° 0.1 mm 1 mps 741 mmHg 84%
15:00 +14°C° 0.1 mm 1 mps 741 mmHg 82%
16:00 +14°C° 0.1 mm 1 mps 740 mmHg 80%
17:00 +14°C° 0 mm 1 mps 740 mmHg 82%
18:00 +14°C° 0 mm 1 mps 740 mmHg 83%
19:00 +13°C° 0 mm 1 mps 740 mmHg 85%
20:00 +13°C° 0 mm 1 mps 740 mmHg 85%
21:00 +13°C° 0 mm 1 mps 740 mmHg 85%
22:00 +13°C° 0 mm 1 mps 741 mmHg 85%
23:00 +12°C° 0.4 mm 1 mps 740 mmHg 87%

23 April, Friday

Time Temperature Precipitation Wind Pressure Humidity
00:00 +12°C° 0.4 mm 1 mps 740 mmHg 90%
01:00 +12°C° 0.4 mm 2 mps 740 mmHg 92%
02:00 +12°C° 1.2 mm 1 mps 739 mmHg 93%
03:00 +12°C° 1.2 mm 1 mps 739 mmHg 94%
04:00 +12°C° 1.2 mm 1 mps 739 mmHg 95%
05:00 +12°C° 1.1 mm 1 mps 739 mmHg 94%
06:00 +12°C° 1.1 mm 1 mps 739 mmHg 94%
07:00 +12°C° 1.1 mm 1 mps 739 mmHg 94%
08:00 +12°C° 0.5 mm 2 mps 739 mmHg 93%
09:00 +12°C° 0.5 mm 2 mps 739 mmHg 92%
10:00 +13°C° 0.5 mm 2 mps 739 mmHg 91%
11:00 +13°C° 0.3 mm 2 mps 739 mmHg 91%
12:00 +13°C° 0.3 mm 2 mps 738 mmHg 91%
13:00 +13°C° 0.3 mm 2 mps 738 mmHg 91%
14:00 +13°C° 0.9 mm 2 mps 738 mmHg 91%
15:00 +13°C° 0.9 mm 2 mps 738 mmHg 92%
16:00 +13°C° 0.9 mm 2 mps 738 mmHg 93%
17:00 +12°C° 0.4 mm 2 mps 738 mmHg 93%
18:00 +12°C° 0.4 mm 2 mps 739 mmHg 92%
19:00 +12°C° 0.4 mm 2 mps 739 mmHg 92%
20:00 +12°C° 0 mm 2 mps 739 mmHg 92%
21:00 +11°C° 0 mm 3 mps 740 mmHg 92%
22:00 +11°C° 0 mm 3 mps 740 mmHg 92%
23:00 +11°C° 0 mm 3 mps 740 mmHg 92%

24 April, Saturday

Time Temperature Precipitation Wind Pressure Humidity
00:00 +11°C° 0 mm 3 mps 740 mmHg 92%
01:00 +10°C° 0 mm 2 mps 740 mmHg 92%
02:00 +10°C° 0 mm 2 mps 740 mmHg 92%
03:00 +9°C° 0 mm 2 mps 741 mmHg 92%
04:00 +9°C° 0 mm 2 mps 741 mmHg 92%
05:00 +10°C° 0 mm 2 mps 741 mmHg 88%
06:00 +10°C° 0 mm 2 mps 741 mmHg 85%
07:00 +12°C° 0 mm 2 mps 741 mmHg 82%
08:00 +13°C° 0 mm 2 mps 742 mmHg 72%
09:00 +15°C° 0 mm 2 mps 742 mmHg 63%
10:00 +17°C° 0 mm 2 mps 742 mmHg 53%
11:00 +18°C° 0 mm 2 mps 742 mmHg 50%
12:00 +19°C° 0 mm 2 mps 742 mmHg 47%
13:00 +19°C° 0 mm 3 mps 742 mmHg 44%
14:00 +19°C° 0 mm 3 mps 742 mmHg 44%
15:00 +19°C° 0 mm 3 mps 742 mmHg 43%
16:00 +19°C° 0 mm 3 mps 742 mmHg 43%
17:00 +17°C° 0 mm 3 mps 742 mmHg 49%
18:00 +15°C° 0 mm 2 mps 742 mmHg 54%
19:00 +13°C° 0 mm 2 mps 743 mmHg 60%
20:00 +12°C° 0 mm 2 mps 743 mmHg 58%
21:00 +12°C° 0 mm 2 mps 743 mmHg 56%
22:00 +10°C° 0 mm 2 mps 744 mmHg 54%
23:00 +10°C° 0 mm 2 mps 744 mmHg 52%
Show more